Regional Weather Roundup
Issued by NWS State College, PA

Home | Current Version | Previous Version | Text Only | Print | Product List | Glossary On
Versions: 1 2 3 4 5 6 7 8 9 10 11 12 13 14 15 16 17 18 19 20 21 22 23 24 25 26 27 28 29 30 31 32 33 34 35 36 37 38 39 40 41 42 43 44 45 46 47 48 49 50
872
ASUS41 KCTP 051310
RWRCTP

REGIONAL WEATHER ROUNDUP
NATIONAL WEATHER SERVICE STATE COLLEGE PA
900 AM EDT THU MAY 05 2016

Note: "fair" indicates few or no clouds below 12,000 feet with no
significant weather and/or obstructions to visibility.

* = STATION THAT DOES NOT REPORT PRECIPITATION /E.G. RAIN...SNOW...ETC/
    THUNDER OR FOG.

PAZ002>004-007>009-013>016-020>023-029>032-051400-
WESTERN PENNSYLVANIA

CITY           SKY/WX    TMP DP  RH WIND       PRES   REMARKS
ERIE           CLOUDY    47  45  93 NE14      29.77R FOG
MEADVILLE      CLOUDY    49  46  90 NE5       29.73R
FRANKLIN*      CLOUDY    50  46  87 NE5       29.74S
NEW CASTLE     CLOUDY    51  47  86 NW6       29.73R
BEAVER COUNTY  CLOUDY    50  46  87 N5        29.72R
BUTLER*        MOSUNNY   50  46  87 N3        29.74R
PITTSBURGH INT CLOUDY    51  47  86 N6        29.70S
PITTSBURGH     LGT RAIN  50  47  89 NW6       29.69S FOG
INDIANA*       CLOUDY    52  50  93 E5G13     29.73S
LATROBE        LGT RAIN  50  50 100 CALM      29.70S FOG
WASHINGTON CO* CLOUDY    50  46  87 NW5       29.71R
$$

PAZ004>006-010>012-017>019-024>028-033>037-041-042-045-046-049>053-051400-
CENTRAL PENNSYLVANIA

CITY           SKY/WX    TMP DP  RH WIND       PRES   REMARKS
BRADFORD       CLOUDY    49  44  83 NE8       29.72S
DUBOIS         CLOUDY   N/A N/A N/A CALM      29.70R
CLEARFIELD     MOSUNNY   52  45  77 CALM      29.70S
JOHNSTOWN      CLOUDY    49  43  80 NE8       29.68R
ALTOONA        PTSUNNY   50  44  80 NE7       29.69S
STATE COLLEGE  CLOUDY    50  46  87 NE6       29.70S
WILLIAMSPORT   CLOUDY    54  45  71 E8        29.71R
SELINSGROVE    CLOUDY    52  46  80 NE9       29.71S
FT INDIANTOWN  PTSUNNY   52  47  83 NE6       29.70S
CAPITAL CITY   CLOUDY    52  44  74 E7        29.71R
HARRISBURG     CLOUDY    51  45  79 E6        29.70R
YORK           CLOUDY    49  46  90 NE8       29.70R FOG
$$

PAZ038>040-043-044-047-048-054-055-060>062-067>071-051400-
EASTERN PENNSYLVANIA

CITY           SKY/WX    TMP DP  RH WIND       PRES   REMARKS
SCRANTON       CLOUDY    49  42  77 NE10      29.71F
MOUNT POCONO   CLOUDY    41  40  96 NE12      29.69F
ALLENTOWN      CLOUDY    50  43  77 NE12G18   29.71S
QUAKERTOWN*    CLOUDY    48  45  87 NE7       29.71S
READING        CLOUDY    50  43  77 NE12      29.70R
LANCASTER      CLOUDY    49  45  86 NE9       29.69R
COATESVILLE    CLOUDY    48  48 100 NE6       29.70R
POTTSTOWN      CLOUDY    48  44  86 NE8       29.71R
BLUE BELL      CLOUDY    46  43  87 NE5       29.69S
DOYLESTOWN     CLOUDY    48  43  82 NE8       29.69S
WILLOW GROVE   NOT AVBL
NORTH PHILA    CLOUDY    50  45  83 NE12      29.72R
PHILADELPHIA   CLOUDY    50  43  77 NE15G21   29.71R
$$




USA.gov is the U.S. government's official web portal to all federal, state and local government web resources and services.